This is the latest recevied weather packets stored in our database for station/object KA7GOO. If no packets are shown the sender has not sent any weather packets the latest 10 day(s).
| Time | Temp. | Humidity | Pressure | Rain* | Wind** | Luminosity | Snow |
|---|---|---|---|---|---|---|---|
| 1787971578 | - | - | 1001 hPa | 0 mm | - | - | - |
| 1787970684 | - | - | 1000.4 hPa | 0 mm | - | - | - |
| 1787969800 | - | - | 1000.3 hPa | 0 mm | - | - | - |
| 1787968896 | - | - | 1000.3 hPa | 0 mm | - | - | - |
| 1787967004 | 38.33° C | 31% | 999.9 hPa | 0 mm | - | - | - |
| 1787966166 | 38.89° C | 31% | 999.9 hPa | 0 mm | - | - | - |
| 1787965209 | 40° C | 31% | 999.9 hPa | 0 mm | - | - | - |
| 1787964306 | 40° C | 31% | 999.7 hPa | 0 mm | - | - | - |
| 1787963482 | 40° C | 31% | 999.6 hPa | 0 mm | - | - | - |
| 1787962552 | 39.44° C | 31% | 999.6 hPa | 0 mm | - | - | - |
| 1787961679 | 40° C | 31% | 999.5 hPa | 0 mm | - | - | - |
| 1787960765 | 41.11° C | 31% | 999.5 hPa | 0 mm | - | - | - |
| 1787959882 | 40.56° C | 31% | 999.9 hPa | 0 mm | - | - | - |
| 1787958906 | 41.11° C | 31% | 1000.1 hPa | 0 mm | - | - | - |
| 1787958054 | 40.56° C | 31% | 1000.1 hPa | 0 mm | - | - | - |
| 1787957174 | 40° C | 31% | 1000.5 hPa | 0 mm | - | - | - |
| 1787956297 | 39.44° C | 31% | 1000.5 hPa | 0 mm | - | - | - |
| 1787955399 | 40° C | 31% | 1000.6 hPa | 0 mm | - | - | - |
| 1787954492 | 41.11° C | 31% | 1000.9 hPa | 0 mm | - | - | - |
| 1787953612 | 41.11° C | 31% | 1001.1 hPa | 0 mm | - | - | - |
| 1787952656 | 41.11° C | 31% | 1001.2 hPa | 0 mm | - | - | - |
| 1787951778 | 41.11° C | 31% | 1001.7 hPa | 0 mm | - | - | - |
| 1787950899 | 41.67° C | 31% | 1001.8 hPa | 0 mm | - | - | - |
| 1787949901 | 41.11° C | 31% | 1001.8 hPa | 0 mm | - | - | - |
| 1787949060 | 40° C | 31% | 1002.3 hPa | 0 mm | - | - | - |
* Rain latest hour (hover to see other rain measurements)
** Current wind speed in m/s (hover to see current wind gust speed)